Time,TemperatureF,DewpointF,PressureIn,WindDirection,WindDirectionDegrees,WindSpeedMPH,WindSpeedGustMPH,Humidity,HourlyPrecipIn,Conditions,Clouds,dailyrainin,SoftwareType,DateUTC
2013-01-07 00:00:00,29.9,21.3,30.39,North,349,0.0,1.0,70,0.00,,,0.00,VWS V14.01,2013-01-07 06:00:00,
2013-01-07 00:05:00,29.7,21.1,30.39,North,349,0.0,0.0,70,0.00,,,0.00,VWS V14.01,2013-01-07 06:05:00,
2013-01-07 00:10:00,29.6,21.0,30.39,North,349,0.0,0.0,70,0.00,,,0.00,VWS V14.01,2013-01-07 06:10:00,
2013-01-07 00:15:00,29.5,20.9,30.39,North,349,0.0,0.0,70,0.00,,,0.00,VWS V14.01,2013-01-07 06:15:00,
2013-01-07 00:20:00,29.3,20.7,30.39,North,349,0.0,0.0,70,0.00,,,0.00,VWS V14.01,2013-01-07 06:20:00,
2013-01-07 00:25:00,29.2,21.0,30.38,North,349,0.0,0.0,71,0.00,,,0.00,VWS V14.01,2013-01-07 06:25:00,
2013-01-07 00:30:00,29.0,20.8,30.38,North,349,0.0,0.0,71,0.00,,,0.00,VWS V14.01,2013-01-07 06:30:00,
2013-01-07 00:35:00,28.8,20.9,30.38,North,349,0.0,0.0,72,0.00,,,0.00,VWS V14.01,2013-01-07 06:35:00,
2013-01-07 00:40:00,28.6,20.7,30.38,North,349,0.0,1.0,72,0.00,,,0.00,VWS V14.01,2013-01-07 06:40:00,
2013-01-07 00:45:00,28.3,20.4,30.38,North,349,0.0,1.0,72,0.00,,,0.00,VWS V14.01,2013-01-07 06:45:00,
2013-01-07 00:50:00,28.0,20.5,30.38,North,349,0.0,1.0,73,0.00,,,0.00,VWS V14.01,2013-01-07 06:50:00,
2013-01-07 00:55:00,27.8,20.3,30.38,North,349,0.0,1.0,73,0.00,,,0.00,VWS V14.01,2013-01-07 06:55:00,
2013-01-07 01:00:00,27.5,20.0,30.39,North,349,0.0,1.0,73,0.00,,,0.00,VWS V14.01,2013-01-07 07:00:00,
2013-01-07 01:05:00,27.3,20.1,30.38,North,349,0.0,0.0,74,0.00,,,0.00,VWS V14.01,2013-01-07 07:05:00,
2013-01-07 01:10:00,27.1,20.2,30.38,North,349,0.0,0.0,75,0.00,,,0.00,VWS V14.01,2013-01-07 07:10:00,
2013-01-07 01:15:00,26.8,20.0,30.38,North,349,0.0,0.0,75,0.00,,,0.00,VWS V14.01,2013-01-07 07:15:00,
2013-01-07 01:20:00,26.6,20.1,30.38,North,349,0.0,1.0,76,0.00,,,0.00,VWS V14.01,2013-01-07 07:20:00,
2013-01-07 01:25:00,26.5,20.0,30.38,North,349,0.0,1.0,76,0.00,,,0.00,VWS V14.01,2013-01-07 07:25:00,
2013-01-07 01:30:00,26.3,19.8,30.38,North,349,0.0,1.0,76,0.00,,,0.00,VWS V14.01,2013-01-07 07:30:00,
2013-01-07 01:35:00,26.2,19.7,30.37,North,349,0.0,0.0,76,0.00,,,0.00,VWS V14.01,2013-01-07 07:35:00,
2013-01-07 01:40:00,26.0,19.5,30.37,North,349,0.0,0.0,76,0.00,,,0.00,VWS V14.01,2013-01-07 07:40:00,
2013-01-07 01:45:00,25.8,19.3,30.38,North,349,0.0,0.0,76,0.00,,,0.00,VWS V14.01,2013-01-07 07:45:00,
2013-01-07 01:50:00,25.6,19.4,30.37,North,349,0.0,0.0,77,0.00,,,0.00,VWS V14.01,2013-01-07 07:50:00,
2013-01-07 01:55:00,25.4,19.2,30.37,North,349,0.0,0.0,77,0.00,,,0.00,VWS V14.01,2013-01-07 07:55:00,
2013-01-07 02:00:00,25.2,19.0,30.37,North,349,0.0,0.0,77,0.00,,,0.00,VWS V14.01,2013-01-07 08:00:00,
2013-01-07 02:05:00,24.9,18.7,30.37,North,349,0.0,0.0,77,0.00,,,0.00,VWS V14.01,2013-01-07 08:05:00,
2013-01-07 02:10:00,24.7,19.1,30.37,North,349,0.0,0.0,79,0.00,,,0.00,VWS V14.01,2013-01-07 08:10:00,
2013-01-07 02:15:00,24.6,19.3,30.37,North,349,0.0,0.0,80,0.00,,,0.00,VWS V14.01,2013-01-07 08:15:00,
2013-01-07 02:20:00,24.5,19.2,30.37,North,349,0.0,0.0,80,0.00,,,0.00,VWS V14.01,2013-01-07 08:20:00,
2013-01-07 02:25:00,24.4,19.4,30.37,North,349,0.0,0.0,81,0.00,,,0.00,VWS V14.01,2013-01-07 08:25:00,
2013-01-07 02:30:00,24.3,19.3,30.36,North,349,0.0,0.0,81,0.00,,,0.00,VWS V14.01,2013-01-07 08:30:00,
2013-01-07 02:35:00,24.3,19.3,30.36,North,349,0.0,0.0,81,0.00,,,0.00,VWS V14.01,2013-01-07 08:35:00,
2013-01-07 02:40:00,24.2,19.2,30.36,North,349,0.0,0.0,81,0.00,,,0.00,VWS V14.01,2013-01-07 08:40:00,
2013-01-07 02:45:00,24.1,19.4,30.36,North,349,0.0,0.0,82,0.00,,,0.00,VWS V14.01,2013-01-07 08:45:00,
2013-01-07 02:50:00,24.1,19.4,30.36,North,349,0.0,0.0,82,0.00,,,0.00,VWS V14.01,2013-01-07 08:50:00,
2013-01-07 02:55:00,24.1,19.7,30.36,North,349,0.0,0.0,83,0.00,,,0.00,VWS V14.01,2013-01-07 08:55:00,
2013-01-07 03:00:00,24.1,19.7,30.35,North,349,0.0,0.0,83,0.00,,,0.00,VWS V14.01,2013-01-07 09:00:00,
2013-01-07 03:05:00,24.1,19.7,30.35,North,349,0.0,0.0,83,0.00,,,0.00,VWS V14.01,2013-01-07 09:05:00,
2013-01-07 03:10:00,24.0,19.3,30.35,North,349,0.0,0.0,82,0.00,,,0.00,VWS V14.01,2013-01-07 09:10:00,
2013-01-07 03:15:00,23.9,19.2,30.35,North,349,0.0,0.0,82,0.00,,,0.00,VWS V14.01,2013-01-07 09:15:00,
2013-01-07 03:20:00,23.8,19.1,30.34,North,349,0.0,0.0,82,0.00,,,0.00,VWS V14.01,2013-01-07 09:20:00,
2013-01-07 03:25:00,23.7,19.0,30.34,North,349,0.0,0.0,82,0.00,,,0.00,VWS V14.01,2013-01-07 09:25:00,
2013-01-07 03:30:00,23.6,18.9,30.35,North,349,0.0,0.0,82,0.00,,,0.00,VWS V14.01,2013-01-07 09:30:00,
2013-01-07 03:35:00,23.5,19.1,30.35,North,349,0.0,0.0,83,0.00,,,0.00,VWS V14.01,2013-01-07 09:35:00,
2013-01-07 03:40:00,23.5,19.1,30.35,North,349,0.0,0.0,83,0.00,,,0.00,VWS V14.01,2013-01-07 09:40:00,
2013-01-07 03:45:00,23.4,19.0,30.35,North,349,0.0,0.0,83,0.00,,,0.00,VWS V14.01,2013-01-07 09:45:00,
2013-01-07 03:50:00,23.3,18.9,30.35,North,349,0.0,0.0,83,0.00,,,0.00,VWS V14.01,2013-01-07 09:50:00,
2013-01-07 03:55:00,23.3,19.2,30.35,North,349,0.0,0.0,84,0.00,,,0.00,VWS V14.01,2013-01-07 09:55:00,
2013-01-07 04:00:00,23.4,19.3,30.34,North,349,0.0,0.0,84,0.00,,,0.00,VWS V14.01,2013-01-07 10:00:00,
2013-01-07 04:05:00,23.5,19.7,30.35,North,349,0.0,0.0,85,0.00,,,0.00,VWS V14.01,2013-01-07 10:05:00,
2013-01-07 04:10:00,23.6,19.8,30.35,North,349,0.0,0.0,85,0.00,,,0.00,VWS V14.01,2013-01-07 10:10:00,
2013-01-07 04:15:00,23.8,19.7,30.34,North,349,0.0,0.0,84,0.00,,,0.00,VWS V14.01,2013-01-07 10:15:00,
2013-01-07 04:20:00,23.8,19.7,30.34,North,349,0.0,0.0,84,0.00,,,0.00,VWS V14.01,2013-01-07 10:20:00,
2013-01-07 04:25:00,23.8,19.7,30.34,North,349,0.0,0.0,84,0.00,,,0.00,VWS V14.01,2013-01-07 10:25:00,
2013-01-07 04:30:00,23.9,19.8,30.34,North,349,0.0,0.0,84,0.00,,,0.00,VWS V14.01,2013-01-07 10:30:00,
2013-01-07 04:35:00,23.9,19.5,30.34,North,349,0.0,0.0,83,0.00,,,0.00,VWS V14.01,2013-01-07 10:35:00,
2013-01-07 04:40:00,23.8,19.4,30.33,North,349,0.0,0.0,83,0.00,,,0.00,VWS V14.01,2013-01-07 10:40:00,
2013-01-07 04:45:00,23.6,18.9,30.33,North,349,0.0,0.0,82,0.00,,,0.00,VWS V14.01,2013-01-07 10:45:00,
2013-01-07 04:50:00,23.4,18.7,30.33,North,349,0.0,0.0,82,0.00,,,0.00,VWS V14.01,2013-01-07 10:50:00,
2013-01-07 04:55:00,23.1,18.1,30.33,North,349,0.0,0.0,81,0.00,,,0.00,VWS V14.01,2013-01-07 10:55:00,
2013-01-07 05:00:00,22.8,17.9,30.34,North,349,0.0,0.0,81,0.00,,,0.00,VWS V14.01,2013-01-07 11:00:00,
2013-01-07 05:05:00,22.5,17.6,30.34,North,349,0.0,0.0,81,0.00,,,0.00,VWS V14.01,2013-01-07 11:05:00,
2013-01-07 05:10:00,22.3,17.6,30.34,North,349,0.0,1.0,82,0.00,,,0.00,VWS V14.01,2013-01-07 11:10:00,
2013-01-07 05:15:00,22.1,17.7,30.34,North,349,0.0,1.0,83,0.00,,,0.00,VWS V14.01,2013-01-07 11:15:00,
2013-01-07 05:21:00,22.1,18.3,30.34,North,349,0.0,1.0,85,0.00,,,0.00,VWS V14.01,2013-01-07 11:21:00,
2013-01-07 05:26:00,22.1,18.3,30.34,North,349,0.0,1.0,85,0.00,,,0.00,VWS V14.01,2013-01-07 11:26:00,
2013-01-07 05:30:00,22.1,18.3,30.34,North,349,0.0,1.0,85,0.00,,,0.00,VWS V14.01,2013-01-07 11:30:00,
2013-01-07 05:36:00,22.0,18.2,30.34,North,349,0.0,0.0,85,0.00,,,0.00,VWS V14.01,2013-01-07 11:36:00,
2013-01-07 05:41:00,21.9,18.1,30.34,North,349,0.0,0.0,85,0.00,,,0.00,VWS V14.01,2013-01-07 11:41:00,
2013-01-07 05:45:00,21.7,17.9,30.35,North,349,0.0,0.0,85,0.00,,,0.00,VWS V14.01,2013-01-07 11:45:00,
2013-01-07 05:51:00,21.6,17.8,30.35,North,349,0.0,0.0,85,0.00,,,0.00,VWS V14.01,2013-01-07 11:51:00,
2013-01-07 05:56:00,21.6,18.1,30.35,North,349,0.0,0.0,86,0.00,,,0.00,VWS V14.01,2013-01-07 11:56:00,
2013-01-07 06:00:00,21.8,18.8,30.34,North,349,0.0,0.0,88,0.00,,,0.00,VWS V14.01,2013-01-07 12:00:00,
2013-01-07 06:01:00,21.6,17.8,30.35,North,349,0.0,0.0,85,0.00,,,0.00,VWS V14.01,2013-01-07 12:01:00,
2013-01-07 06:06:00,21.5,17.7,30.35,North,349,0.0,0.0,85,0.00,,,0.00,VWS V14.01,2013-01-07 12:06:00,
2013-01-07 06:11:00,21.3,17.5,30.35,North,349,0.0,0.0,85,0.00,,,0.00,VWS V14.01,2013-01-07 12:11:00,
2013-01-07 06:16:00,21.2,17.4,30.35,North,349,0.0,0.0,85,0.00,,,0.00,VWS V14.01,2013-01-07 12:16:00,
2013-01-07 06:21:00,21.1,17.3,30.35,North,349,0.0,0.0,85,0.00,,,0.00,VWS V14.01,2013-01-07 12:21:00,
2013-01-07 06:26:00,20.9,17.1,30.34,North,349,0.0,0.0,85,0.00,,,0.00,VWS V14.01,2013-01-07 12:26:00,
2013-01-07 06:30:00,22.3,19.0,30.36,SSW,192,0.0,5.0,87,0.00,,,0.00,VWS V14.01,2013-01-07 12:30:00,
2013-01-07 06:31:00,20.9,17.4,30.34,North,349,0.0,1.0,86,0.00,,,0.00,VWS V14.01,2013-01-07 12:31:00,
2013-01-07 06:36:00,21.0,17.8,30.35,North,349,0.0,0.0,87,0.00,,,0.00,VWS V14.01,2013-01-07 12:36:00,
2013-01-07 06:41:00,21.3,18.0,30.35,North,349,0.0,0.0,87,0.00,,,0.00,VWS V14.01,2013-01-07 12:41:00,
2013-01-07 06:46:00,21.5,18.5,30.35,North,349,0.0,0.0,88,0.00,,,0.00,VWS V14.01,2013-01-07 12:46:00,
2013-01-07 06:51:00,21.6,18.6,30.34,North,349,0.0,0.0,88,0.00,,,0.00,VWS V14.01,2013-01-07 12:51:00,
2013-01-07 06:56:00,21.7,18.4,30.34,North,349,0.0,0.0,87,0.00,,,0.00,VWS V14.01,2013-01-07 12:56:00,
2013-01-07 07:00:00,22.5,19.0,30.35,SSW,192,0.0,0.0,86,0.00,,,0.00,VWS V14.01,2013-01-07 13:00:00,
2013-01-07 07:01:00,21.8,18.5,30.34,North,349,0.0,0.0,87,0.00,,,0.00,VWS V14.01,2013-01-07 13:01:00,
2013-01-07 07:06:00,21.9,18.9,30.34,SSW,192,0.0,5.0,88,0.00,,,0.00,VWS V14.01,2013-01-07 13:06:00,
2013-01-07 07:11:00,22.1,19.1,30.34,SSW,192,0.0,5.0,88,0.00,,,0.00,VWS V14.01,2013-01-07 13:11:00,
2013-01-07 07:16:00,22.2,18.9,30.35,SSW,192,0.0,5.0,87,0.00,,,0.00,VWS V14.01,2013-01-07 13:16:00,
2013-01-07 07:21:00,22.2,18.9,30.35,SSW,192,0.0,5.0,87,0.00,,,0.00,VWS V14.01,2013-01-07 13:21:00,
2013-01-07 07:26:00,22.2,18.9,30.36,SSW,192,0.0,5.0,87,0.00,,,0.00,VWS V14.01,2013-01-07 13:26:00,
2013-01-07 07:30:00,23.2,20.2,30.36,SSW,192,0.0,0.0,88,0.00,,,0.00,VWS V14.01,2013-01-07 13:30:00,
2013-01-07 07:31:00,22.3,19.0,30.36,SSW,192,0.0,5.0,87,0.00,,,0.00,VWS V14.01,2013-01-07 13:31:00,
2013-01-07 07:36:00,22.4,19.1,30.35,SSW,192,0.0,0.0,87,0.00,,,0.00,VWS V14.01,2013-01-07 13:36:00,
2013-01-07 07:41:00,22.4,19.1,30.35,SSW,192,0.0,0.0,87,0.00,,,0.00,VWS V14.01,2013-01-07 13:41:00,
2013-01-07 07:46:00,22.4,18.9,30.35,SSW,192,0.0,0.0,86,0.00,,,0.00,VWS V14.01,2013-01-07 13:46:00,
2013-01-07 07:51:00,22.4,19.1,30.35,SSW,192,0.0,0.0,87,0.00,,,0.00,VWS V14.01,2013-01-07 13:51:00,
2013-01-07 07:56:00,22.4,18.9,30.35,SSW,192,0.0,0.0,86,0.00,,,0.00,VWS V14.01,2013-01-07 13:56:00,
2013-01-07 08:00:00,27.6,24.8,30.37,SSE,152,1.0,4.0,89,0.00,,,0.00,VWS V14.01,2013-01-07 14:00:00,
2013-01-07 08:01:00,22.4,18.9,30.35,SSW,192,0.0,0.0,86,0.00,,,0.00,VWS V14.01,2013-01-07 14:01:00,
2013-01-07 08:06:00,22.4,18.9,30.35,SSW,192,0.0,0.0,86,0.00,,,0.00,VWS V14.01,2013-01-07 14:06:00,
2013-01-07 08:11:00,22.5,19.0,30.36,SSW,192,0.0,0.0,86,0.00,,,0.00,VWS V14.01,2013-01-07 14:11:00,
2013-01-07 08:16:00,22.5,19.0,30.35,SSW,192,0.0,0.0,86,0.00,,,0.00,VWS V14.01,2013-01-07 14:16:00,
2013-01-07 08:21:00,22.6,19.0,30.35,SSW,192,0.0,0.0,86,0.00,,,0.00,VWS V14.01,2013-01-07 14:21:00,
2013-01-07 08:26:00,22.7,19.4,30.35,SSW,192,0.0,0.0,87,0.00,,,0.00,VWS V14.01,2013-01-07 14:26:00,
2013-01-07 08:30:00,35.3,28.2,30.36,SSE,147,4.0,6.0,75,0.00,,,0.00,VWS V14.01,2013-01-07 14:30:00,
2013-01-07 08:31:00,23.1,20.1,30.36,SSW,192,0.0,0.0,88,0.00,,,0.00,VWS V14.01,2013-01-07 14:31:00,
2013-01-07 08:36:00,23.8,21.0,30.36,SSW,192,0.0,0.0,89,0.00,,,0.00,VWS V14.01,2013-01-07 14:36:00,
2013-01-07 08:41:00,24.4,21.6,30.36,SSW,192,0.0,0.0,89,0.00,,,0.00,VWS V14.01,2013-01-07 14:41:00,
2013-01-07 08:46:00,25.2,22.7,30.36,SSW,192,0.0,0.0,90,0.00,,,0.00,VWS V14.01,2013-01-07 14:46:00,
2013-01-07 08:50:00,25.9,23.1,30.37,SSW,192,0.0,1.0,89,0.00,,,0.00,VWS V14.01,2013-01-07 14:50:00,
2013-01-07 08:55:00,26.7,23.9,30.37,SSW,192,0.0,1.0,89,0.00,,,0.00,VWS V14.01,2013-01-07 14:55:00,
2013-01-07 09:00:00,27.5,24.7,30.37,SE,140,3.0,4.0,89,0.00,,,0.00,VWS V14.01,2013-01-07 15:00:00,
2013-01-07 09:05:00,28.3,25.2,30.37,SE,132,0.0,4.0,88,0.00,,,0.00,VWS V14.01,2013-01-07 15:05:00,
2013-01-07 09:10:00,29.4,26.0,30.36,SE,126,3.0,6.0,87,0.00,,,0.00,VWS V14.01,2013-01-07 15:10:00,
2013-01-07 09:15:00,31.4,27.1,30.36,SSE,163,1.0,6.0,84,0.00,,,0.00,VWS V14.01,2013-01-07 15:15:00,
2013-01-07 09:20:00,33.2,28.0,30.37,South,175,2.0,6.0,81,0.00,,,0.00,VWS V14.01,2013-01-07 15:20:00,
2013-01-07 09:25:00,34.4,28.0,30.36,South,187,3.0,6.0,77,0.00,,,0.00,VWS V14.01,2013-01-07 15:25:00,
2013-01-07 09:30:00,35.2,28.1,30.36,SSE,163,2.0,6.0,75,0.00,,,0.00,VWS V14.01,2013-01-07 15:30:00,
2013-01-07 09:35:00,36.0,28.9,30.36,SE,141,2.0,5.0,75,0.00,,,0.00,VWS V14.01,2013-01-07 15:35:00,
2013-01-07 09:40:00,36.8,29.0,30.36,South,188,2.0,6.0,73,0.00,,,0.00,VWS V14.01,2013-01-07 15:40:00,
2013-01-07 09:45:00,37.1,28.9,30.36,SSE,149,1.0,6.0,72,0.00,,,0.00,VWS V14.01,2013-01-07 15:45:00,
2013-01-07 09:50:00,37.2,28.7,30.36,SSE,167,2.0,8.0,71,0.00,,,0.00,VWS V14.01,2013-01-07 15:50:00,
2013-01-07 09:55:00,37.5,29.3,30.36,SE,128,1.0,8.0,72,0.00,,,0.00,VWS V14.01,2013-01-07 15:55:00,
2013-01-07 10:00:00,38.1,29.5,30.36,ESE,119,3.0,8.0,71,0.00,,,0.00,VWS V14.01,2013-01-07 16:00:00,
2013-01-07 10:05:00,38.7,30.1,30.36,SSE,156,0.0,7.0,71,0.00,,,0.00,VWS V14.01,2013-01-07 16:05:00,
2013-01-07 10:10:00,39.4,30.1,30.36,South,190,4.0,7.0,69,0.00,,,0.00,VWS V14.01,2013-01-07 16:10:00,
2013-01-07 10:15:00,40.1,30.0,30.36,SSE,149,0.0,9.0,67,0.00,,,0.00,VWS V14.01,2013-01-07 16:15:00,
2013-01-07 10:20:00,40.7,29.9,30.36,SSE,168,0.0,9.0,65,0.00,,,0.00,VWS V14.01,2013-01-07 16:20:00,
2013-01-07 10:25:00,41.4,30.1,30.36,SE,128,5.0,9.0,64,0.00,,,0.00,VWS V14.01,2013-01-07 16:25:00,
2013-01-07 10:30:00,42.1,29.6,30.36,SSE,157,8.0,11.0,61,0.00,,,0.00,VWS V14.01,2013-01-07 16:30:00,
2013-01-07 10:35:00,42.6,30.5,30.36,SE,132,1.0,9.0,62,0.00,,,0.00,VWS V14.01,2013-01-07 16:35:00,
2013-01-07 10:40:00,42.9,30.0,30.35,SE,133,10.0,11.0,60,0.00,,,0.00,VWS V14.01,2013-01-07 16:40:00,
2013-01-07 10:45:00,43.0,29.7,30.35,SSE,150,2.0,11.0,59,0.00,,,0.00,VWS V14.01,2013-01-07 16:45:00,
2013-01-07 10:50:00,43.4,30.0,30.35,SSE,164,5.0,11.0,59,0.00,,,0.00,VWS V14.01,2013-01-07 16:50:00,
2013-01-07 10:55:00,44.1,30.7,30.35,SSE,165,1.0,11.0,59,0.00,,,0.00,VWS V14.01,2013-01-07 16:55:00,
2013-01-07 11:00:00,44.5,30.7,30.35,SSW,198,8.0,12.0,58,0.00,,,0.00,VWS V14.01,2013-01-07 17:00:00,
2013-01-07 11:05:00,45.0,31.1,30.35,South,178,1.0,11.0,58,0.00,,,0.00,VWS V14.01,2013-01-07 17:05:00,
2013-01-07 11:10:00,45.3,31.0,30.34,SSE,157,0.0,11.0,57,0.00,,,0.00,VWS V14.01,2013-01-07 17:10:00,
2013-01-07 11:15:00,45.7,30.9,30.34,SE,144,6.0,11.0,56,0.00,,,0.00,VWS V14.01,2013-01-07 17:15:00,
2013-01-07 11:20:00,45.6,30.8,30.33,South,169,1.0,11.0,56,0.00,,,0.00,VWS V14.01,2013-01-07 17:20:00,
2013-01-07 11:25:00,45.9,31.1,30.33,SSE,160,4.0,11.0,56,0.00,,,0.00,VWS V14.01,2013-01-07 17:25:00,
2013-01-07 11:30:00,46.0,30.8,30.33,South,183,5.0,11.0,55,0.00,,,0.00,VWS V14.01,2013-01-07 17:30:00,
2013-01-07 11:35:00,46.0,30.8,30.32,SE,145,5.0,9.0,55,0.00,,,0.00,VWS V14.01,2013-01-07 17:35:00,
2013-01-07 11:40:00,46.1,31.3,30.32,SSW,206,0.0,9.0,56,0.00,,,0.00,VWS V14.01,2013-01-07 17:40:00,
2013-01-07 11:45:00,46.1,30.9,30.31,SSE,153,0.0,9.0,55,0.00,,,0.00,VWS V14.01,2013-01-07 17:45:00,
2013-01-07 11:50:00,46.3,31.0,30.31,SSE,149,1.0,9.0,55,0.00,,,0.00,VWS V14.01,2013-01-07 17:50:00,
2013-01-07 11:55:00,46.5,31.2,30.31,SSE,153,0.0,9.0,55,0.00,,,0.00,VWS V14.01,2013-01-07 17:55:00,
2013-01-07 12:00:00,46.7,31.4,30.30,South,184,0.0,9.0,55,0.00,,,0.00,VWS V14.01,2013-01-07 18:00:00,
2013-01-07 12:05:00,47.2,31.9,30.30,South,188,6.0,11.0,55,0.00,,,0.00,VWS V14.01,2013-01-07 18:05:00,
2013-01-07 12:10:00,47.7,31.9,30.29,SSE,167,0.0,11.0,54,0.00,,,0.00,VWS V14.01,2013-01-07 18:10:00,
2013-01-07 12:15:00,48.1,31.8,30.28,SE,140,5.0,11.0,53,0.00,,,0.00,VWS V14.01,2013-01-07 18:15:00,
2013-01-07 12:20:00,48.4,32.1,30.28,SE,140,0.0,11.0,53,0.00,,,0.00,VWS V14.01,2013-01-07 18:20:00,
2013-01-07 12:25:00,48.5,31.7,30.27,SSE,155,1.0,11.0,52,0.00,,,0.00,VWS V14.01,2013-01-07 18:25:00,
2013-01-07 12:30:00,48.5,31.7,30.27,South,190,1.0,11.0,52,0.00,,,0.00,VWS V14.01,2013-01-07 18:30:00,
2013-01-07 12:35:00,48.7,31.9,30.27,South,177,5.0,7.0,52,0.00,,,0.00,VWS V14.01,2013-01-07 18:35:00,
2013-01-07 12:40:00,48.8,32.0,30.27,SSW,198,4.0,8.0,52,0.00,,,0.00,VWS V14.01,2013-01-07 18:40:00,
2013-01-07 12:45:00,49.2,31.9,30.26,South,173,4.0,8.0,51,0.00,,,0.00,VWS V14.01,2013-01-07 18:45:00,
2013-01-07 12:50:00,49.7,31.8,30.26,SW,222,5.0,8.0,50,0.00,,,0.00,VWS V14.01,2013-01-07 18:50:00,
2013-01-07 12:55:00,50.4,31.5,30.25,SSE,157,2.0,8.0,48,0.00,,,0.00,VWS V14.01,2013-01-07 18:55:00,
2013-01-07 13:00:00,50.8,31.3,30.25,SW,227,5.0,10.0,47,0.00,,,0.00,VWS V14.01,2013-01-07 19:00:00,
2013-01-07 13:05:00,51.0,31.5,30.25,SSW,205,6.0,10.0,47,0.00,,,0.00,VWS V14.01,2013-01-07 19:05:00,
2013-01-07 13:10:00,51.2,31.1,30.24,SSE,161,1.0,10.0,46,0.00,,,0.00,VWS V14.01,2013-01-07 19:10:00,
2013-01-07 13:15:00,51.3,31.8,30.24,East,101,4.0,11.0,47,0.00,,,0.00,VWS V14.01,2013-01-07 19:15:00,
2013-01-07 13:20:00,51.5,32.0,30.24,SE,138,8.0,11.0,47,0.00,,,0.00,VWS V14.01,2013-01-07 19:20:00,
2013-01-07 13:25:00,51.8,32.2,30.24,SSE,153,4.0,11.0,47,0.00,,,0.00,VWS V14.01,2013-01-07 19:25:00,
2013-01-07 13:30:00,52.2,32.1,30.23,South,180,0.0,11.0,46,0.00,,,0.00,VWS V14.01,2013-01-07 19:30:00,
2013-01-07 13:35:00,52.4,31.7,30.23,SSE,164,0.0,8.0,45,0.00,,,0.00,VWS V14.01,2013-01-07 19:35:00,
2013-01-07 13:40:00,52.3,32.2,30.23,SSE,155,5.0,9.0,46,0.00,,,0.00,VWS V14.01,2013-01-07 19:40:00,
2013-01-07 13:45:00,52.4,32.2,30.22,SSE,151,2.0,9.0,46,0.00,,,0.00,VWS V14.01,2013-01-07 19:45:00,
2013-01-07 13:50:00,52.4,32.2,30.22,SSE,153,2.0,9.0,46,0.00,,,0.00,VWS V14.01,2013-01-07 19:50:00,
2013-01-07 13:55:00,52.6,31.9,30.22,SSW,194,4.0,10.0,45,0.00,,,0.00,VWS V14.01,2013-01-07 19:55:00,
2013-01-07 14:00:00,52.6,31.9,30.21,SSE,155,5.0,10.0,45,0.00,,,0.00,VWS V14.01,2013-01-07 20:00:00,
2013-01-07 14:05:00,52.5,32.3,30.22,South,187,4.0,12.0,46,0.00,,,0.00,VWS V14.01,2013-01-07 20:05:00,
2013-01-07 14:10:00,52.8,31.5,30.21,SSW,206,7.0,13.0,44,0.00,,,0.00,VWS V14.01,2013-01-07 20:10:00,
2013-01-07 14:15:00,53.1,31.8,30.22,South,182,4.0,13.0,44,0.00,,,0.00,VWS V14.01,2013-01-07 20:15:00,
2013-01-07 14:19:00,53.2,31.9,30.21,SW,232,6.0,13.0,44,0.00,,,0.00,VWS V14.01,2013-01-07 20:19:00,
2013-01-07 14:24:00,53.5,32.7,30.21,South,187,6.0,13.0,45,0.00,,,0.00,VWS V14.01,2013-01-07 20:24:00,
2013-01-07 14:29:00,53.7,32.3,30.20,South,170,1.0,13.0,44,0.00,,,0.00,VWS V14.01,2013-01-07 20:29:00,
2013-01-07 14:30:00,52.5,31.2,30.19,SSE,152,0.0,7.0,44,0.00,,,0.00,VWS V14.01,2013-01-07 20:30:00,
2013-01-07 14:34:00,53.6,32.8,30.21,South,186,6.0,11.0,45,0.00,,,0.00,VWS V14.01,2013-01-07 20:34:00,
2013-01-07 14:39:00,53.7,32.3,30.20,SE,128,4.0,11.0,44,0.00,,,0.00,VWS V14.01,2013-01-07 20:39:00,
2013-01-07 14:44:00,53.9,32.5,30.20,SSE,167,3.0,11.0,44,0.00,,,0.00,VWS V14.01,2013-01-07 20:44:00,
2013-01-07 14:49:00,53.8,32.4,30.20,South,173,1.0,11.0,44,0.00,,,0.00,VWS V14.01,2013-01-07 20:49:00,
2013-01-07 14:54:00,53.8,31.9,30.20,SE,145,2.0,11.0,43,0.00,,,0.00,VWS V14.01,2013-01-07 20:54:00,
2013-01-07 14:59:00,53.9,32.5,30.20,South,175,2.0,13.0,44,0.00,,,0.00,VWS V14.01,2013-01-07 20:59:00,
2013-01-07 15:00:00,52.3,31.0,30.19,SSE,160,0.0,7.0,44,0.00,,,0.00,VWS V14.01,2013-01-07 21:00:00,
2013-01-07 15:04:00,53.9,32.5,30.19,SSE,164,2.0,7.0,44,0.00,,,0.00,VWS V14.01,2013-01-07 21:04:00,
2013-01-07 15:09:00,53.9,31.9,30.20,SSE,153,2.0,7.0,43,0.00,,,0.00,VWS V14.01,2013-01-07 21:09:00,
2013-01-07 15:14:00,53.7,31.8,30.20,SE,140,0.0,7.0,43,0.00,,,0.00,VWS V14.01,2013-01-07 21:14:00,
2013-01-07 15:19:00,53.2,31.3,30.20,South,171,1.0,7.0,43,0.00,,,0.00,VWS V14.01,2013-01-07 21:19:00,
2013-01-07 15:24:00,52.8,31.5,30.20,South,179,0.0,7.0,44,0.00,,,0.00,VWS V14.01,2013-01-07 21:24:00,
2013-01-07 15:29:00,52.6,31.3,30.20,South,169,3.0,7.0,44,0.00,,,0.00,VWS V14.01,2013-01-07 21:29:00,
2013-01-07 15:30:00,51.2,31.1,30.18,SSE,157,0.0,6.0,46,0.00,,,0.00,VWS V14.01,2013-01-07 21:30:00,
2013-01-07 15:34:00,52.4,31.1,30.19,SSE,153,1.0,1.0,44,0.00,,,0.00,VWS V14.01,2013-01-07 21:34:00,
2013-01-07 15:39:00,52.4,31.1,30.19,SE,136,1.0,7.0,44,0.00,,,0.00,VWS V14.01,2013-01-07 21:39:00,
2013-01-07 15:44:00,52.4,31.1,30.19,SSE,148,1.0,7.0,44,0.00,,,0.00,VWS V14.01,2013-01-07 21:44:00,
2013-01-07 15:49:00,52.4,31.1,30.19,SSE,168,2.0,7.0,44,0.00,,,0.00,VWS V14.01,2013-01-07 21:49:00,
2013-01-07 15:54:00,52.3,31.0,30.19,South,177,0.0,7.0,44,0.00,,,0.00,VWS V14.01,2013-01-07 21:54:00,
2013-01-07 15:59:00,52.3,31.0,30.19,South,190,1.0,7.0,44,0.00,,,0.00,VWS V14.01,2013-01-07 21:59:00,
2013-01-07 16:00:00,49.7,31.3,30.19,South,174,0.0,5.0,49,0.00,,,0.00,VWS V14.01,2013-01-07 22:00:00,
2013-01-07 16:04:00,52.2,31.0,30.19,South,169,2.0,4.0,44,0.00,,,0.00,VWS V14.01,2013-01-07 22:04:00,
2013-01-07 16:09:00,52.1,30.9,30.19,SSE,168,1.0,4.0,44,0.00,,,0.00,VWS V14.01,2013-01-07 22:09:00,
2013-01-07 16:14:00,52.0,30.8,30.19,SSE,158,0.0,6.0,44,0.00,,,0.00,VWS V14.01,2013-01-07 22:14:00,
2013-01-07 16:19:00,51.8,31.1,30.18,SSE,156,0.0,6.0,45,0.00,,,0.00,VWS V14.01,2013-01-07 22:19:00,
2013-01-07 16:24:00,51.6,31.0,30.18,SSE,157,0.0,6.0,45,0.00,,,0.00,VWS V14.01,2013-01-07 22:24:00,
2013-01-07 16:29:00,51.4,31.3,30.18,SSE,158,0.0,6.0,46,0.00,,,0.00,VWS V14.01,2013-01-07 22:29:00,
2013-01-07 16:30:00,47.1,30.4,30.19,South,174,0.0,0.0,52,0.00,,,0.00,VWS V14.01,2013-01-07 22:30:00,
2013-01-07 16:34:00,51.1,31.6,30.19,SSE,157,1.0,1.0,47,0.00,,,0.00,VWS V14.01,2013-01-07 22:34:00,
2013-01-07 16:39:00,50.8,31.3,30.19,SSW,208,0.0,5.0,47,0.00,,,0.00,VWS V14.01,2013-01-07 22:39:00,
2013-01-07 16:44:00,50.5,31.0,30.19,SSW,207,0.0,5.0,47,0.00,,,0.00,VWS V14.01,2013-01-07 22:44:00,
2013-01-07 16:49:00,50.3,31.4,30.19,South,174,0.0,5.0,48,0.00,,,0.00,VWS V14.01,2013-01-07 22:49:00,
2013-01-07 16:54:00,50.0,31.6,30.19,South,174,0.0,5.0,49,0.00,,,0.00,VWS V14.01,2013-01-07 22:54:00,
2013-01-07 16:59:00,49.8,31.4,30.19,South,174,0.0,5.0,49,0.00,,,0.00,VWS V14.01,2013-01-07 22:59:00,
2013-01-07 17:00:00,44.2,30.0,30.20,South,173,0.0,0.0,57,0.00,,,0.00,VWS V14.01,2013-01-07 23:00:00,
2013-01-07 17:04:00,49.5,31.6,30.19,South,174,0.0,0.0,50,0.00,,,0.00,VWS V14.01,2013-01-07 23:04:00,
2013-01-07 17:09:00,49.2,31.4,30.19,South,174,0.0,0.0,50,0.00,,,0.00,VWS V14.01,2013-01-07 23:09:00,
2013-01-07 17:14:00,48.8,31.0,30.19,South,174,0.0,0.0,50,0.00,,,0.00,VWS V14.01,2013-01-07 23:14:00,
2013-01-07 17:19:00,48.3,31.0,30.19,South,173,0.0,0.0,51,0.00,,,0.00,VWS V14.01,2013-01-07 23:19:00,
2013-01-07 17:24:00,47.9,31.1,30.19,South,174,0.0,0.0,52,0.00,,,0.00,VWS V14.01,2013-01-07 23:24:00,
2013-01-07 17:29:00,47.3,30.6,30.19,South,173,0.0,0.0,52,0.00,,,0.00,VWS V14.01,2013-01-07 23:29:00,
2013-01-07 17:30:00,42.1,29.2,30.20,South,173,0.0,0.0,60,0.00,,,0.00,VWS V14.01,2013-01-07 23:30:00,
2013-01-07 17:34:00,46.8,30.6,30.19,South,173,0.0,0.0,53,0.00,,,0.00,VWS V14.01,2013-01-07 23:34:00,
2013-01-07 17:39:00,46.3,30.6,30.19,South,173,0.0,0.0,54,0.00,,,0.00,VWS V14.01,2013-01-07 23:39:00,
2013-01-07 17:44:00,45.8,30.6,30.19,South,174,0.0,0.0,55,0.00,,,0.00,VWS V14.01,2013-01-07 23:44:00,
2013-01-07 17:49:00,45.3,30.1,30.19,South,173,0.0,0.0,55,0.00,,,0.00,VWS V14.01,2013-01-07 23:49:00,
2013-01-07 17:54:00,44.9,30.2,30.20,South,174,0.0,0.0,56,0.00,,,0.00,VWS V14.01,2013-01-07 23:54:00,
2013-01-07 17:59:00,44.4,30.1,30.20,South,173,0.0,0.0,57,0.00,,,0.00,VWS V14.01,2013-01-07 23:59:00,
2013-01-07 18:00:00,40.3,28.7,30.19,South,174,0.0,0.0,63,0.00,,,0.00,VWS V14.01,2013-01-08 00:00:00,
2013-01-07 18:04:00,44.0,29.8,30.20,South,174,0.0,0.0,57,0.00,,,0.00,VWS V14.01,2013-01-08 00:04:00,
2013-01-07 18:09:00,43.6,29.8,30.20,South,173,0.0,0.0,58,0.00,,,0.00,VWS V14.01,2013-01-08 00:09:00,
2013-01-07 18:14:00,43.2,29.9,30.19,South,174,0.0,0.0,59,0.00,,,0.00,VWS V14.01,2013-01-08 00:14:00,
2013-01-07 18:19:00,42.8,29.5,30.19,South,174,0.0,0.0,59,0.00,,,0.00,VWS V14.01,2013-01-08 00:19:00,
2013-01-07 18:24:00,42.5,29.6,30.20,South,173,0.0,0.0,60,0.00,,,0.00,VWS V14.01,2013-01-08 00:24:00,
2013-01-07 18:29:00,42.2,29.3,30.19,South,174,0.0,0.0,60,0.00,,,0.00,VWS V14.01,2013-01-08 00:29:00,
2013-01-07 18:30:00,39.7,29.3,30.18,South,174,0.0,0.0,66,0.00,,,0.00,VWS V14.01,2013-01-08 00:30:00,
2013-01-07 18:34:00,41.9,29.0,30.20,South,173,0.0,0.0,60,0.00,,,0.00,VWS V14.01,2013-01-08 00:34:00,
2013-01-07 18:39:00,41.6,29.2,30.19,South,173,0.0,0.0,61,0.00,,,0.00,VWS V14.01,2013-01-08 00:39:00,
2013-01-07 18:44:00,41.3,28.9,30.19,South,174,0.0,0.0,61,0.00,,,0.00,VWS V14.01,2013-01-08 00:44:00,
2013-01-07 18:49:00,41.1,29.1,30.19,South,174,0.0,0.0,62,0.00,,,0.00,VWS V14.01,2013-01-08 00:49:00,
2013-01-07 18:54:00,40.7,29.1,30.19,South,174,0.0,0.0,63,0.00,,,0.00,VWS V14.01,2013-01-08 00:54:00,
2013-01-07 18:59:00,40.5,28.9,30.19,South,173,0.0,0.0,63,0.00,,,0.00,VWS V14.01,2013-01-08 00:59:00,
2013-01-07 19:00:00,39.2,29.5,30.17,South,174,0.0,0.0,68,0.00,,,0.00,VWS V14.01,2013-01-08 01:00:00,
2013-01-07 19:04:00,40.2,28.6,30.19,South,173,0.0,0.0,63,0.00,,,0.00,VWS V14.01,2013-01-08 01:04:00,
2013-01-07 19:09:00,40.0,28.8,30.19,South,174,0.0,0.0,64,0.00,,,0.00,VWS V14.01,2013-01-08 01:09:00,
2013-01-07 19:14:00,39.8,29.0,30.19,South,173,0.0,0.0,65,0.00,,,0.00,VWS V14.01,2013-01-08 01:14:00,
2013-01-07 19:19:00,39.8,29.0,30.18,South,173,0.0,0.0,65,0.00,,,0.00,VWS V14.01,2013-01-08 01:19:00,
2013-01-07 19:24:00,39.7,28.9,30.18,South,174,0.0,0.0,65,0.00,,,0.00,VWS V14.01,2013-01-08 01:24:00,
2013-01-07 19:29:00,39.7,28.9,30.18,South,174,0.0,0.0,65,0.00,,,0.00,VWS V14.01,2013-01-08 01:29:00,
2013-01-07 19:30:00,38.7,29.1,30.18,South,174,0.0,0.0,68,0.00,,,0.00,VWS V14.01,2013-01-08 01:30:00,
2013-01-07 19:34:00,39.7,29.3,30.18,South,174,0.0,0.0,66,0.00,,,0.00,VWS V14.01,2013-01-08 01:34:00,
2013-01-07 19:39:00,39.6,29.2,30.18,South,174,0.0,0.0,66,0.00,,,0.00,VWS V14.01,2013-01-08 01:39:00,
2013-01-07 19:44:00,39.5,29.1,30.18,South,174,0.0,0.0,66,0.00,,,0.00,VWS V14.01,2013-01-08 01:44:00,
2013-01-07 19:49:00,39.4,29.0,30.17,South,173,0.0,0.0,66,0.00,,,0.00,VWS V14.01,2013-01-08 01:49:00,
2013-01-07 19:54:00,39.3,29.3,30.17,South,173,0.0,0.0,67,0.00,,,0.00,VWS V14.01,2013-01-08 01:54:00,
2013-01-07 19:59:00,39.2,29.2,30.17,South,174,0.0,0.0,67,0.00,,,0.00,VWS V14.01,2013-01-08 01:59:00,
2013-01-07 20:00:00,38.3,29.7,30.16,SSE,153,0.0,1.0,71,0.00,,,0.00,VWS V14.01,2013-01-08 02:00:00,
2013-01-07 20:04:00,39.2,29.5,30.17,South,173,0.0,0.0,68,0.00,,,0.00,VWS V14.01,2013-01-08 02:04:00,
2013-01-07 20:09:00,39.1,29.5,30.17,South,173,0.0,0.0,68,0.00,,,0.00,VWS V14.01,2013-01-08 02:09:00,
2013-01-07 20:14:00,39.1,29.5,30.17,South,173,0.0,0.0,68,0.00,,,0.00,VWS V14.01,2013-01-08 02:14:00,
2013-01-07 20:19:00,39.0,29.4,30.17,South,174,0.0,0.0,68,0.00,,,0.00,VWS V14.01,2013-01-08 02:19:00,
2013-01-07 20:24:00,38.9,29.6,30.18,South,173,0.0,0.0,69,0.00,,,0.00,VWS V14.01,2013-01-08 02:24:00,
2013-01-07 20:29:00,38.8,29.2,30.18,South,174,0.0,0.0,68,0.00,,,0.00,VWS V14.01,2013-01-08 02:29:00,
2013-01-07 20:30:00,38.4,29.8,30.16,South,188,0.0,3.0,71,0.00,,,0.00,VWS V14.01,2013-01-08 02:30:00,
2013-01-07 20:34:00,38.6,29.3,30.18,South,174,0.0,1.0,69,0.00,,,0.00,VWS V14.01,2013-01-08 02:34:00,
2013-01-07 20:39:00,38.5,29.6,30.17,South,173,0.0,1.0,70,0.00,,,0.00,VWS V14.01,2013-01-08 02:39:00,
2013-01-07 20:44:00,38.4,29.5,30.17,SSE,153,0.0,1.0,70,0.00,,,0.00,VWS V14.01,2013-01-08 02:44:00,
2013-01-07 20:49:00,38.3,29.4,30.17,SSE,152,0.0,1.0,70,0.00,,,0.00,VWS V14.01,2013-01-08 02:49:00,
2013-01-07 20:54:00,38.3,29.7,30.17,SSE,153,0.0,1.0,71,0.00,,,0.00,VWS V14.01,2013-01-08 02:54:00,
2013-01-07 20:59:00,38.3,29.7,30.17,SSE,153,0.0,1.0,71,0.00,,,0.00,VWS V14.01,2013-01-08 02:59:00,
2013-01-07 21:00:00,40.3,29.9,30.16,SSE,158,0.0,5.0,66,0.00,,,0.00,VWS V14.01,2013-01-08 03:00:00,
2013-01-07 21:04:00,38.3,29.7,30.17,SSE,153,0.0,1.0,71,0.00,,,0.00,VWS V14.01,2013-01-08 03:04:00,
2013-01-07 21:09:00,38.3,29.7,30.17,SSE,153,0.0,1.0,71,0.00,,,0.00,VWS V14.01,2013-01-08 03:09:00,
2013-01-07 21:14:00,38.3,29.7,30.16,SSE,153,0.0,1.0,71,0.00,,,0.00,VWS V14.01,2013-01-08 03:14:00,
2013-01-07 21:19:00,38.2,29.6,30.16,SSE,152,0.0,1.0,71,0.00,,,0.00,VWS V14.01,2013-01-08 03:19:00,
2013-01-07 21:24:00,38.2,29.6,30.16,East,95,0.0,1.0,71,0.00,,,0.00,VWS V14.01,2013-01-08 03:24:00,
2013-01-07 21:29:00,38.3,29.7,30.16,East,95,0.0,1.0,71,0.00,,,0.00,VWS V14.01,2013-01-08 03:29:00,
2013-01-07 21:30:00,39.2,29.2,30.16,SSE,157,0.0,0.0,67,0.00,,,0.00,VWS V14.01,2013-01-08 03:30:00,
2013-01-07 21:34:00,38.5,29.9,30.16,SSW,199,0.0,2.0,71,0.00,,,0.00,VWS V14.01,2013-01-08 03:34:00,
2013-01-07 21:39:00,38.8,29.9,30.16,SSE,150,0.0,2.0,70,0.00,,,0.00,VWS V14.01,2013-01-08 03:39:00,
2013-01-07 21:44:00,39.1,29.8,30.16,SW,215,0.0,5.0,69,0.00,,,0.00,VWS V14.01,2013-01-08 03:44:00,
2013-01-07 21:49:00,39.5,29.8,30.16,SSE,157,1.0,5.0,68,0.00,,,0.00,VWS V14.01,2013-01-08 03:49:00,
2013-01-07 21:54:00,40.0,29.9,30.16,SSE,158,0.0,5.0,67,0.00,,,0.00,VWS V14.01,2013-01-08 03:54:00,
2013-01-07 21:59:00,40.2,30.1,30.16,SSE,158,0.0,5.0,67,0.00,,,0.00,VWS V14.01,2013-01-08 03:59:00,
2013-01-07 22:00:00,36.9,28.0,30.15,SSE,158,0.0,1.0,70,0.00,,,0.00,VWS V14.01,2013-01-08 04:00:00,
2013-01-07 22:04:00,40.3,29.9,30.16,SSE,157,0.0,0.0,66,0.00,,,0.00,VWS V14.01,2013-01-08 04:04:00,
2013-01-07 22:09:00,40.4,30.0,30.16,SSE,158,0.0,0.0,66,0.00,,,0.00,VWS V14.01,2013-01-08 04:09:00,
2013-01-07 22:14:00,40.3,29.9,30.16,SSE,157,0.0,0.0,66,0.00,,,0.00,VWS V14.01,2013-01-08 04:14:00,
2013-01-07 22:19:00,40.1,29.7,30.16,SSE,157,0.0,0.0,66,0.00,,,0.00,VWS V14.01,2013-01-08 04:19:00,
2013-01-07 22:24:00,39.8,29.4,30.16,SSE,157,0.0,0.0,66,0.00,,,0.00,VWS V14.01,2013-01-08 04:24:00,
2013-01-07 22:29:00,39.4,29.4,30.16,SSE,158,0.0,0.0,67,0.00,,,0.00,VWS V14.01,2013-01-08 04:29:00,
2013-01-07 22:30:00,35.5,27.7,30.15,SSE,158,0.0,0.0,73,0.00,,,0.00,VWS V14.01,2013-01-08 04:30:00,
2013-01-07 22:34:00,38.9,28.9,30.16,SSE,158,0.0,1.0,67,0.00,,,0.00,VWS V14.01,2013-01-08 04:34:00,
2013-01-07 22:39:00,38.5,28.9,30.16,SSE,158,0.0,1.0,68,0.00,,,0.00,VWS V14.01,2013-01-08 04:39:00,
2013-01-07 22:44:00,38.1,28.5,30.15,SSE,158,0.0,1.0,68,0.00,,,0.00,VWS V14.01,2013-01-08 04:44:00,
2013-01-07 22:49:00,37.7,28.5,30.15,SSE,158,0.0,1.0,69,0.00,,,0.00,VWS V14.01,2013-01-08 04:49:00,
2013-01-07 22:54:00,37.4,28.2,30.15,SSE,157,0.0,1.0,69,0.00,,,0.00,VWS V14.01,2013-01-08 04:54:00,
2013-01-07 22:59:00,37.0,28.1,30.15,SSE,157,0.0,1.0,70,0.00,,,0.00,VWS V14.01,2013-01-08 04:59:00,
2013-01-07 23:00:00,37.0,28.1,30.15,SSE,158,0.0,1.0,70,0.00,,,0.00,VWS V14.01,2013-01-08 05:00:00,
2013-01-07 23:01:00,36.9,28.0,30.15,SSE,158,0.0,1.0,70,0.00,,,0.00,VWS V14.01,2013-01-08 05:01:00,
2013-01-07 23:02:00,36.9,28.0,30.15,SSE,158,0.0,0.0,70,0.00,,,0.00,VWS V14.01,2013-01-08 05:02:00,
2013-01-07 23:07:00,36.5,28.0,30.15,SSE,158,0.0,0.0,71,0.00,,,0.00,VWS V14.01,2013-01-08 05:07:00,
2013-01-07 23:12:00,36.3,27.8,30.15,SSE,158,0.0,0.0,71,0.00,,,0.00,VWS V14.01,2013-01-08 05:12:00,
2013-01-07 23:17:00,36.0,27.9,30.15,SSE,157,0.0,0.0,72,0.00,,,0.00,VWS V14.01,2013-01-08 05:17:00,
2013-01-07 23:22:00,35.8,27.7,30.15,SSE,158,0.0,0.0,72,0.00,,,0.00,VWS V14.01,2013-01-08 05:22:00,
2013-01-07 23:27:00,35.6,27.8,30.15,SSE,158,0.0,0.0,73,0.00,,,0.00,VWS V14.01,2013-01-08 05:27:00,
2013-01-07 23:30:00,33.5,27.4,30.14,SSE,158,0.0,1.0,78,0.00,,,0.00,VWS V14.01,2013-01-08 05:30:00,
2013-01-07 23:32:00,35.4,27.6,30.15,SSE,157,0.0,0.0,73,0.00,,,0.00,VWS V14.01,2013-01-08 05:32:00,
2013-01-07 23:37:00,35.3,27.9,30.15,SSE,158,0.0,0.0,74,0.00,,,0.00,VWS V14.01,2013-01-08 05:37:00,
2013-01-07 23:42:00,35.1,27.7,30.15,SSE,157,0.0,0.0,74,0.00,,,0.00,VWS V14.01,2013-01-08 05:42:00,
2013-01-07 23:47:00,35.0,27.9,30.15,SSE,157,0.0,0.0,75,0.00,,,0.00,VWS V14.01,2013-01-08 05:47:00,
2013-01-07 23:52:00,34.8,27.7,30.15,SSE,157,0.0,0.0,75,0.00,,,0.00,VWS V14.01,2013-01-08 05:52:00,
2013-01-07 23:57:00,34.5,27.4,30.15,SSE,158,0.0,0.0,75,0.00,,,0.00,VWS V14.01,2013-01-08 05:57:00,